Date String (YYYY-MM-DD hh:mm:ss) UTC,Instrument flags,Ambient pressure (hPa),Sample flow (lpm),Bypass flow (lpm),Sample temperature (°C),Ambient temperature (°C),ASC tube jacket temperature (°C),LED temperature (°C),Box temperature (°C),Sample RH (%),Span deviation,Mass concentration (μg/m³),Mass concentration (μg/m³),Mass concentration (μg/m³)
DateTimeUTC,F1_M11,P_M11,Q1_M11,Q2_M11,T1_M11,T2_M11,T3_M11,T4_M11,T5_M11,U1_M11,ZSPAN_M11,X0_M11,X2_M11,X1_M11
2022-11-03 05:00:00,,0817.2,5.01,0.00,28.8,27.2,00.0,37.7,30.6,07.1,0000.0,0004.87,0002.50,0001.77
2022-11-03 05:01:00,,0817.1,5.01,0.00,28.8,27.2,00.0,37.7,30.6,07.1,0000.0,0004.73,0002.47,0001.76
2022-11-03 05:02:00,,0816.9,4.99,0.00,28.8,27.2,00.0,37.7,30.6,07.1,0000.0,0004.54,0002.44,0001.74
2022-11-03 05:03:00,,0816.9,4.99,0.00,28.7,27.2,00.0,37.7,30.6,07.1,0000.0,0004.20,0002.38,0001.73
2022-11-03 05:04:00,,0817.1,5.00,0.00,28.7,27.1,00.0,37.6,30.6,07.0,0000.0,0003.92,0002.37,0001.72
2022-11-03 05:05:00,,0816.9,5.01,0.00,28.7,27.2,00.0,37.6,30.6,07.0,0000.0,0004.34,0002.33,0001.71
2022-11-03 05:06:00,,0816.9,5.01,0.00,28.7,27.2,00.0,37.6,30.6,07.0,0000.0,0004.45,0002.33,0001.72
2022-11-03 05:07:00,,0816.9,5.00,0.00,28.7,27.2,00.0,37.6,30.5,06.9,0000.0,0004.50,0002.37,0001.72
2022-11-03 05:08:00,,0816.9,5.00,0.00,28.7,27.2,00.0,37.6,30.6,06.9,0000.0,0005.16,0002.40,0001.71
2022-11-03 05:09:00,,0817.2,4.98,0.00,28.7,27.2,00.0,37.6,30.6,06.8,0000.0,0006.75,0002.42,0001.72
2022-11-03 05:10:00,,0817.2,4.99,0.00,28.7,27.2,00.0,37.6,30.5,06.8,0000.0,0006.73,0002.38,0001.71
2022-11-03 05:11:00,,0817.3,5.01,0.00,28.7,27.2,00.0,37.6,30.5,06.8,0000.0,0006.77,0002.38,0001.72
2022-11-03 05:12:00,,0817.2,5.00,0.00,28.7,27.1,00.0,37.6,30.5,06.8,0000.0,0006.67,0002.34,0001.71
2022-11-03 05:13:00,,0817.1,5.00,0.00,28.7,27.1,00.0,37.6,30.5,06.8,0000.0,0006.63,0002.30,0001.70
2022-11-03 05:14:00,,0817.0,5.00,0.00,28.7,27.2,00.0,37.6,30.5,06.9,0000.0,0006.77,0002.34,0001.70
2022-11-03 05:15:00,,0817.2,4.99,0.00,28.7,27.2,00.0,37.6,30.6,07.0,0000.0,0006.62,0002.30,0001.69
2022-11-03 05:16:00,,0817.2,5.00,0.00,28.7,27.2,00.0,37.6,30.6,07.0,0000.0,0006.09,0002.30,0001.69
2022-11-03 05:17:00,,0817.1,5.00,0.00,28.7,27.2,00.0,37.6,30.6,06.9,0000.0,0005.90,0002.30,0001.70
2022-11-03 05:18:00,,0817.2,5.00,0.00,28.7,27.2,00.0,37.6,30.6,06.9,0000.0,0007.16,0002.32,0001.69
2022-11-03 05:19:00,,0817.2,5.01,0.00,28.7,27.3,00.0,37.6,30.5,06.8,0000.0,0007.35,0002.33,0001.68
2022-11-03 05:20:00,,0816.8,5.01,0.00,28.7,27.2,00.0,37.6,30.5,06.8,0000.0,0005.97,0002.35,0001.67
2022-11-03 05:21:00,,0817.2,5.00,0.00,28.7,27.2,00.0,37.6,30.5,06.8,0000.0,0005.95,0002.36,0001.66
2022-11-03 05:22:00,,0817.1,5.00,0.00,28.7,27.2,00.0,37.6,30.5,06.8,0000.0,0005.85,0002.33,0001.64
2022-11-03 05:23:00,,0816.9,4.99,0.00,28.7,27.2,00.0,37.6,30.5,06.8,0000.0,0005.98,0002.39,0001.63
2022-11-03 05:24:00,,0817.1,4.99,0.00,28.7,27.2,00.0,37.6,30.5,06.8,0000.0,0006.09,0002.44,0001.64
2022-11-03 05:25:00,,0817.1,5.01,0.00,28.7,27.2,00.0,37.6,30.5,06.8,0000.0,0005.98,0002.43,0001.64
2022-11-03 05:26:00,,0817.0,5.02,0.00,28.7,27.2,00.0,37.6,30.5,06.8,0000.0,0007.04,0002.53,0001.64
2022-11-03 05:27:00,,0816.9,5.00,0.00,28.7,27.2,00.0,37.6,30.6,06.8,0000.0,0007.79,0002.54,0001.63
2022-11-03 05:28:00,,0816.9,4.99,0.00,28.7,27.2,00.0,37.6,30.6,06.8,0000.0,0008.09,0002.51,0001.61
2022-11-03 05:29:00,,0816.9,5.00,0.00,28.7,27.2,00.0,37.6,30.5,06.9,0000.0,0008.21,0002.47,0001.61
2022-11-03 05:30:00,,0816.9,5.00,0.00,28.7,27.2,00.0,37.6,30.5,06.9,0000.0,0007.63,0002.44,0001.62
2022-11-03 05:31:00,,0816.9,5.00,0.00,28.7,27.1,00.0,37.6,30.5,06.9,0000.0,0007.50,0002.36,0001.61
2022-11-03 05:32:00,,0817.2,5.00,0.00,28.7,27.1,00.0,37.6,30.5,06.9,0000.0,0007.48,0002.35,0001.60
2022-11-03 05:33:00,,0817.1,5.00,0.00,28.7,27.0,00.0,37.6,30.4,06.8,0000.0,0007.55,0002.38,0001.62
2022-11-03 05:34:00,,0816.8,5.00,0.00,28.7,27.0,00.0,37.6,30.4,06.8,0000.0,0008.07,0002.37,0001.60
2022-11-03 05:35:00,,0816.9,5.00,0.00,28.7,27.0,00.0,37.6,30.4,06.8,0000.0,0008.18,0002.33,0001.59
2022-11-03 05:36:00,,0816.8,5.00,0.00,28.6,27.0,00.0,37.5,30.4,06.8,0000.0,0008.18,0002.31,0001.59
2022-11-03 05:37:00,,0816.8,5.00,0.00,28.6,27.0,00.0,37.6,30.4,06.8,0000.0,0007.73,0002.22,0001.57
2022-11-03 05:38:00,,0816.8,5.01,0.00,28.6,27.0,00.0,37.5,30.4,06.8,0000.0,0006.80,0002.13,0001.56
2022-11-03 05:39:00,,0817.0,5.01,0.00,28.6,26.9,00.0,37.5,30.4,06.9,0000.0,0006.38,0002.17,0001.58
2022-11-03 05:40:00,,0816.9,5.00,0.00,28.6,26.9,00.0,37.5,30.3,06.9,0000.0,0005.50,0002.17,0001.58
2022-11-03 05:41:00,,0816.6,5.00,0.00,28.6,26.9,00.0,37.5,30.3,06.8,0000.0,0005.25,0002.12,0001.57
2022-11-03 05:42:00,,0816.8,5.00,0.00,28.6,26.9,00.0,37.5,30.3,06.8,0000.0,0005.18,0002.10,0001.56
2022-11-03 05:43:00,,0816.8,5.00,0.00,28.6,26.9,00.0,37.5,30.3,06.8,0000.0,0005.17,0002.09,0001.56
2022-11-03 05:44:00,,0816.7,5.01,0.00,28.6,26.9,00.0,37.5,30.3,06.7,0000.0,0006.33,0002.08,0001.55
2022-11-03 05:45:00,,0816.7,4.99,0.00,28.6,26.9,00.0,37.5,30.3,06.6,0000.0,0006.66,0002.07,0001.54
2022-11-03 05:46:00,,0816.6,5.01,0.00,28.6,26.9,00.0,37.5,30.3,06.7,0000.0,0006.44,0002.08,0001.54
2022-11-03 05:47:00,,0816.8,5.01,0.00,28.6,26.9,00.0,37.5,30.3,06.5,0000.0,0006.47,0002.09,0001.54
2022-11-03 05:48:00,,0816.6,5.00,0.00,28.5,26.9,00.0,37.5,30.3,06.5,0000.0,0007.35,0002.11,0001.54
2022-11-03 05:49:00,,0816.7,5.00,0.00,28.5,26.9,00.0,37.5,30.3,06.7,0000.0,0007.56,0002.18,0001.54
2022-11-03 05:50:00,,0816.8,4.99,0.00,28.5,26.9,00.0,37.4,30.3,06.9,0000.0,0007.37,0002.16,0001.53
2022-11-03 05:51:00,,0816.6,5.00,0.00,28.5,26.8,00.0,37.4,30.3,06.9,0000.0,0007.10,0002.12,0001.51
2022-11-03 05:52:00,,0816.9,5.00,0.00,28.5,26.8,00.0,37.4,30.3,06.8,0000.0,0007.02,0002.12,0001.51
2022-11-03 05:53:00,,0817.0,5.00,0.00,28.5,26.8,00.0,37.4,30.3,06.8,0000.0,0007.06,0002.13,0001.50
2022-11-03 05:54:00,,0816.7,5.00,0.00,28.5,26.7,00.0,37.4,30.2,07.0,0000.0,0007.00,0002.11,0001.50
2022-11-03 05:55:00,,0816.6,5.01,0.00,28.5,26.7,00.0,37.4,30.2,07.1,0000.0,0006.15,0002.09,0001.50
2022-11-03 05:56:00,,0816.8,5.00,0.00,28.4,26.7,00.0,37.4,30.2,06.9,0000.0,0004.61,0002.06,0001.51
2022-11-03 05:57:00,,0817.1,5.00,0.00,28.4,26.6,00.0,37.4,30.1,06.8,0000.0,0004.95,0002.04,0001.51
2022-11-03 05:58:00,,0816.8,5.01,0.00,28.4,26.6,00.0,37.4,30.1,06.9,0000.0,0004.95,0002.01,0001.51
2022-11-03 05:59:00,,0816.7,5.00,0.00,28.4,26.6,00.0,37.3,30.2,06.9,0000.0,0004.53,0002.04,0001.51
